• Em Portugal
  • Lista de países
  • Para 7 dias
  • Temperatura da água
  • Mapas de satélite
  • Mapa do tempo
  • Widgets de tempo
  • user-avatar
    Iniciar Sessão

    Previsão horária em Elbasan

    Hoje, 17 Dezembro, Domingo

    Tempo Temperatura Precipitação Vento Pressão Humidade
    00:00 +10°C° 1,2 mm 1 m/s 729 mmHg 94%
    01:00 +10°C° 1,2 mm 1 m/s 729 mmHg 94%
    02:00 +10°C° 0,9 mm 1 m/s 729 mmHg 94%
    03:00 +9°C° 0,9 mm 1 m/s 729 mmHg 94%
    04:00 +9°C° 0,9 mm 1 m/s 729 mmHg 93%
    05:00 +9°C° 0,7 mm 1 m/s 729 mmHg 93%
    06:00 +9°C° 0,7 mm 1 m/s 729 mmHg 93%
    07:00 +8°C° 0,7 mm 1 m/s 730 mmHg 93%
    08:00 +9°C° 0,4 mm 1 m/s 730 mmHg 91%
    09:00 +9°C° 0,4 mm 1 m/s 731 mmHg 88%
    10:00 +9°C° 0,4 mm 1 m/s 731 mmHg 85%
    11:00 +9°C° 0,3 mm 2 m/s 731 mmHg 81%
    12:00 +9°C° 0,3 mm 2 m/s 731 mmHg 77%
    13:00 +9°C° 0,3 mm 2 m/s 731 mmHg 73%
    14:00 +9°C° 0,4 mm 2 m/s 731 mmHg 77%
    15:00 +8°C° 0,4 mm 2 m/s 732 mmHg 81%
    16:00 +7°C° 0,4 mm 2 m/s 732 mmHg 85%
    17:00 +7°C° 0,4 mm 2 m/s 732 mmHg 87%
    18:00 +7°C° 0,4 mm 1 m/s 733 mmHg 89%
    19:00 +7°C° 0,4 mm 1 m/s 733 mmHg 91%
    20:00 +6°C° 0,2 mm 2 m/s 734 mmHg 90%
    21:00 +5°C° 0,2 mm 2 m/s 734 mmHg 90%
    22:00 +5°C° 0,2 mm 2 m/s 734 mmHg 89%
    23:00 +5°C° 0,2 mm 2 m/s 735 mmHg 89%

    Amanhã, 18 Dezembro, Segunda-feira

    Tempo Temperatura Precipitação Vento Pressão Humidade
    00:00 +4°C° 0,2 mm 3 m/s 735 mmHg 88%
    01:00 +4°C° 0,2 mm 3 m/s 735 mmHg 87%
    02:00 +3°C° 0,5 mm 3 m/s 735 mmHg 88%
    03:00 +3°C° 0,5 mm 3 m/s 735 mmHg 90%
    04:00 +3°C° 0,5 mm 3 m/s 735 mmHg 91%
    05:00 +3°C° 0,4 mm 3 m/s 735 mmHg 91%
    06:00 +4°C° 0,4 mm 2 m/s 735 mmHg 91%
    07:00 +4°C° 0,4 mm 2 m/s 736 mmHg 90%
    08:00 +5°C° 0,3 mm 2 m/s 736 mmHg 87%
    09:00 +5°C° 0,3 mm 2 m/s 736 mmHg 83%
    10:00 +6°C° 0,3 mm 2 m/s 736 mmHg 80%
    11:00 +6°C° 0,3 mm 2 m/s 736 mmHg 79%
    12:00 +6°C° 0,3 mm 2 m/s 735 mmHg 79%
    13:00 +6°C° 0,3 mm 2 m/s 735 mmHg 79%
    14:00 +6°C° 0,5 mm 2 m/s 735 mmHg 83%
    15:00 +5°C° 0,5 mm 2 m/s 735 mmHg 86%
    16:00 +5°C° 0,5 mm 2 m/s 735 mmHg 89%
    17:00 +4°C° 0,3 mm 2 m/s 735 mmHg 90%
    18:00 +4°C° 0,3 mm 2 m/s 735 mmHg 92%
    19:00 +3°C° 0,3 mm 2 m/s 736 mmHg 93%
    20:00 +3°C° 0,2 mm 2 m/s 736 mmHg 93%
    21:00 +4°C° 0,2 mm 1 m/s 737 mmHg 93%
    22:00 +3°C° 0,2 mm 1 m/s 737 mmHg 93%
    23:00 +3°C° 0,1 mm 1 m/s 737 mmHg 92%

    Depois de amanhã, 19 Dezembro, Terça-feira

    Tempo Temperatura Precipitação Vento Pressão Humidade
    00:00 +3°C° 0,1 mm 1 m/s 737 mmHg 92%
    01:00 +2°C° 0,1 mm 1 m/s 738 mmHg 91%
    02:00 +2°C° 0,1 mm 1 m/s 738 mmHg 90%
    03:00 +2°C° 0,1 mm 1 m/s 738 mmHg 90%
    04:00 +2°C° 0,1 mm 1 m/s 738 mmHg 89%
    05:00 +2°C° 0,1 mm 1 m/s 739 mmHg 88%
    06:00 +1°C° 0,1 mm 1 m/s 739 mmHg 87%
    07:00 +1°C° 0,1 mm 1 m/s 740 mmHg 87%
    08:00 +2°C° 0 mm 1 m/s 740 mmHg 82%
    09:00 +3°C° 0 mm 1 m/s 741 mmHg 78%
    10:00 +4°C° 0 mm 1 m/s 741 mmHg 73%
    11:00 +4°C° 0 mm 1 m/s 741 mmHg 71%
    12:00 +4°C° 0 mm 2 m/s 741 mmHg 69%
    13:00 +4°C° 0 mm 2 m/s 741 mmHg 67%
    14:00 +4°C° 0 mm 2 m/s 741 mmHg 70%
    15:00 +3°C° 0 mm 2 m/s 741 mmHg 73%
    16:00 +2°C° 0 mm 2 m/s 741 mmHg 77%
    17:00 +2°C° 0 mm 2 m/s 742 mmHg 78%
    18:00 +1°C° 0 mm 2 m/s 742 mmHg 79%
    19:00 -1°C° 0 mm 2 m/s 742 mmHg 80%
    20:00 -1°C° 0 mm 2 m/s 743 mmHg 80%
    21:00 -1°C° 0 mm 2 m/s 743 mmHg 80%
    22:00 -2°C° 0 mm 2 m/s 743 mmHg 80%
    23:00 -2°C° 0 mm 2 m/s 743 mmHg 79%

    20 Dezembro, Quarta-feira

    Tempo Temperatura Precipitação Vento Pressão Humidade
    00:00 -2°C° 0 mm 2 m/s 743 mmHg 79%
    01:00 -2°C° 0 mm 2 m/s 743 mmHg 79%
    02:00 -2°C° 0 mm 2 m/s 743 mmHg 78%
    03:00 -2°C° 0 mm 2 m/s 742 mmHg 77%
    04:00 -2°C° 0 mm 2 m/s 742 mmHg 76%
    05:00 -2°C° 0 mm 2 m/s 743 mmHg 76%
    06:00 0°C° 0 mm 1 m/s 743 mmHg 75%
    07:00 0°C° 0 mm 1 m/s 743 mmHg 75%
    08:00 +1°C° 0 mm 1 m/s 743 mmHg 70%
    09:00 +2°C° 0 mm 1 m/s 743 mmHg 65%
    10:00 +4°C° 0 mm 1 m/s 743 mmHg 60%
    11:00 +4°C° 0 mm 1 m/s 743 mmHg 59%
    12:00 +5°C° 0 mm 1 m/s 742 mmHg 57%
    13:00 +5°C° 0 mm 1 m/s 742 mmHg 55%
    14:00 +5°C° 0 mm 1 m/s 742 mmHg 60%
    15:00 +4°C° 0 mm 1 m/s 742 mmHg 65%
    16:00 +3°C° 0 mm 1 m/s 742 mmHg 69%
    17:00 +2°C° 0 mm 1 m/s 743 mmHg 71%
    18:00 +2°C° 0 mm 1 m/s 743 mmHg 73%
    19:00 +1°C° 0 mm 1 m/s 744 mmHg 75%
    20:00 +1°C° 0 mm 1 m/s 744 mmHg 75%
    21:00 -1°C° 0 mm 2 m/s 744 mmHg 76%
    22:00 -1°C° 0 mm 2 m/s 745 mmHg 76%
    23:00 -2°C° 0 mm 2 m/s 745 mmHg 76%

    21 Dezembro, Quinta-feira

    Tempo Temperatura Precipitação Vento Pressão Humidade
    00:00 -2°C° 0 mm 2 m/s 745 mmHg 76%
    01:00 -2°C° 0 mm 2 m/s 745 mmHg 76%
    02:00 -2°C° 0 mm 2 m/s 745 mmHg 75%
    03:00 -2°C° 0 mm 2 m/s 745 mmHg 75%
    04:00 -2°C° 0 mm 2 m/s 745 mmHg 74%
    05:00 -2°C° 0 mm 2 m/s 745 mmHg 73%
    06:00 -2°C° 0 mm 2 m/s 745 mmHg 72%
    07:00 -3°C° 0 mm 2 m/s 746 mmHg 71%
    08:00 +1°C° 0 mm 1 m/s 746 mmHg 66%
    09:00 +2°C° 0 mm 1 m/s 746 mmHg 61%
    10:00 +4°C° 0 mm 1 m/s 746 mmHg 56%
    11:00 +4°C° 0 mm 1 m/s 746 mmHg 54%
    12:00 +4°C° 0 mm 2 m/s 746 mmHg 53%
    13:00 +5°C° 0 mm 2 m/s 745 mmHg 51%
    14:00 +4°C° 0 mm 2 m/s 745 mmHg 56%
    15:00 +4°C° 0 mm 1 m/s 745 mmHg 60%
    16:00 +2°C° 0 mm 1 m/s 745 mmHg 64%
    17:00 +2°C° 0 mm 1 m/s 745 mmHg 64%
    18:00 +1°C° 0 mm 1 m/s 745 mmHg 64%
    19:00 +1°C° 0 mm 1 m/s 746 mmHg 63%
    20:00 +1°C° 0 mm 1 m/s 746 mmHg 61%
    21:00 +1°C° 0 mm 1 m/s 746 mmHg 59%
    22:00 +1°C° 0 mm 1 m/s 746 mmHg 57%
    23:00 +1°C° 0 mm 1 m/s 745 mmHg 56%

    22 Dezembro, Sexta-feira

    Tempo Temperatura Precipitação Vento Pressão Humidade
    00:00 +1°C° 0 mm 1 m/s 745 mmHg 56%
    01:00 +1°C° 0 mm 1 m/s 745 mmHg 56%
    02:00 +1°C° 0 mm 1 m/s 745 mmHg 57%
    03:00 +1°C° 0 mm 1 m/s 744 mmHg 57%
    04:00 +2°C° 0 mm 1 m/s 744 mmHg 58%
    05:00 +2°C° 0 mm 1 m/s 744 mmHg 59%
    06:00 +2°C° 0 mm 1 m/s 744 mmHg 61%
    07:00 +2°C° 0 mm 1 m/s 744 mmHg 62%
    08:00 +4°C° 0 mm 1 m/s 743 mmHg 61%
    09:00 +6°C° 0 mm 1 m/s 743 mmHg 60%
    10:00 +7°C° 0 mm 1 m/s 743 mmHg 60%
    11:00 +8°C° 0 mm 1 m/s 743 mmHg 61%
    12:00 +9°C° 0 mm 1 m/s 742 mmHg 62%
    13:00 +9°C° 0 mm 1 m/s 741 mmHg 63%
    14:00 +8°C° 0 mm 1 m/s 741 mmHg 68%
    15:00 +7°C° 0 mm 1 m/s 740 mmHg 72%
    16:00 +6°C° 0 mm 1 m/s 740 mmHg 77%
    17:00 +5°C° 0 mm 1 m/s 740 mmHg 78%
    18:00 +5°C° 0 mm 1 m/s 740 mmHg 79%
    19:00 +5°C° 0 mm 1 m/s 739 mmHg 80%
    20:00 +5°C° 0,1 mm 1 m/s 739 mmHg 81%
    21:00 +5°C° 0,1 mm 1 m/s 739 mmHg 83%
    22:00 +4°C° 0,1 mm 2 m/s 739 mmHg 84%
    23:00 +5°C° 0,6 mm 1 m/s 738 mmHg 86%
    Mostrar mais